IBE843 KBZN-KBOI

Flight info

Callsign IBE843
Flight time N/A
Altitude 30000
Route MEADO2 DBS BOI
Aircraft A346/H-SDE2E3FGHIJ3J4J5M1RWXY/LB1D1

Departure

Time 2026-05-07 04:48
Airport Bozeman Yellowstone International Airport (KBZN)

Arrival

Time N/A
Airport Boise Air Terminal/Gowen Field (KBOI)
Time Latitude Longitude Altitude Speed Heading
2026-05-07 04:11 45.77870 -111.15983 4489 ft 0 kts 226°
2026-05-07 04:40 45.77871 -111.15981 4406 ft 2 kts 226°
2026-05-07 04:40 45.77887 -111.15961 4495 ft 4 kts 208°
2026-05-07 04:40 45.77904 -111.15954 4495 ft 4 kts 171°
2026-05-07 04:40 45.77922 -111.15967 4492 ft 4 kts 139°
2026-05-07 04:41 45.77941 -111.15994 4495 ft 4 kts 135°
2026-05-07 04:41 45.77946 -111.16000 4495 ft 0 kts 136°
2026-05-07 04:42 45.77943 -111.15996 4495 ft 5 kts 132°
2026-05-07 04:42 45.77936 -111.15906 4493 ft 16 kts 96°
2026-05-07 04:43 45.77851 -111.15718 4495 ft 25 kts 134°
2026-05-07 04:43 45.77765 -111.15598 4493 ft 26 kts 136°
2026-05-07 04:43 45.77635 -111.15417 4493 ft 26 kts 136°
2026-05-07 04:43 45.77503 -111.15234 4493 ft 27 kts 135°
2026-05-07 04:44 45.77369 -111.15045 4495 ft 27 kts 135°
2026-05-07 04:44 45.77236 -111.14858 4495 ft 28 kts 135°
2026-05-07 04:44 45.77095 -111.14669 4494 ft 28 kts 137°
2026-05-07 04:44 45.76951 -111.14476 4495 ft 28 kts 136°
2026-05-07 04:45 45.76872 -111.14294 4493 ft 20 kts 64°
2026-05-07 04:45 45.76894 -111.14247 4491 ft 0 kts 50°
2026-05-07 04:45 45.76895 -111.14246 4495 ft 0 kts 50°
2026-05-07 04:46 45.76941 -111.14169 4493 ft 17 kts 49°
2026-05-07 04:46 45.77018 -111.14165 4492 ft 13 kts 316°
2026-05-07 04:46 45.77036 -111.14190 4492 ft 0 kts 317°
2026-05-07 04:47 45.77120 -111.14302 4493 ft 60 kts 316°
2026-05-07 04:47 45.77673 -111.15074 4493 ft 157 kts 315°
2026-05-07 04:48 45.78583 -111.16326 5013 ft 194 kts 317°
2026-05-07 04:48 45.79584 -111.17610 6248 ft 192 kts 317°
2026-05-07 04:48 45.80592 -111.18848 7700 ft 192 kts 317°
2026-05-07 04:48 45.81583 -111.20224 8846 ft 207 kts 302°
2026-05-07 04:49 45.81990 -111.22317 9799 ft 234 kts 277°
2026-05-07 04:49 45.82032 -111.24754 10844 ft 254 kts 274°
2026-05-07 04:49 45.82052 -111.27393 11909 ft 273 kts 275°
2026-05-07 04:49 45.82107 -111.30172 12915 ft 292 kts 276°
2026-05-07 04:50 45.82197 -111.33181 13827 ft 312 kts 276°
2026-05-07 04:50 45.82315 -111.36458 14169 ft 347 kts 276°
2026-05-07 04:50 45.82445 -111.40119 14165 ft 380 kts 275°
2026-05-07 04:50 45.82201 -111.43864 14128 ft 377 kts 259°
2026-05-07 04:51 45.81141 -111.47337 14143 ft 383 kts 241°
2026-05-07 04:51 45.79372 -111.50167 13956 ft 382 kts 224°
2026-05-07 04:51 45.77041 -111.52065 13158 ft 393 kts 204°
2026-05-07 04:51 45.74332 -111.52740 12466 ft 400 kts 184°
2026-05-07 04:52 45.71580 -111.52088 11895 ft 402 kts 163°
2026-05-07 04:52 45.69135 -111.50166 11319 ft 401 kts 142°
2026-05-07 04:52 45.67289 -111.47209 10691 ft 399 kts 122°
2026-05-07 04:52 45.66254 -111.43575 10274 ft 389 kts 100°
2026-05-07 04:53 45.66094 -111.39858 10088 ft 370 kts 81°
2026-05-07 04:53 45.66704 -111.36410 10008 ft 347 kts 63°
2026-05-07 04:53 45.67891 -111.33562 10002 ft 322 kts 48°
2026-05-07 04:53 45.69255 -111.31133 10006 ft 304 kts 45°
2026-05-07 04:54 45.70590 -111.28836 10011 ft 298 kts 45°
2026-05-07 04:54 45.71900 -111.26545 10007 ft 297 kts 46°
2026-05-07 04:54 45.73347 -111.24462 10007 ft 288 kts 27°
2026-05-07 04:54 45.75169 -111.23445 10025 ft 276 kts
2026-05-07 04:55 45.77053 -111.23023 10022 ft 273 kts
2026-05-07 04:55 45.78935 -111.22704 10019 ft 272 kts
2026-05-07 04:55 45.80823 -111.22400 10018 ft 273 kts
2026-05-07 04:55 45.82717 -111.22102 10008 ft 274 kts
2026-05-07 04:56 45.84614 -111.21805 9994 ft 274 kts
2026-05-07 04:56 45.86511 -111.21510 10017 ft 274 kts
2026-05-07 04:56 45.88411 -111.21209 10013 ft 274 kts
2026-05-07 04:56 45.90308 -111.20918 10013 ft 273 kts 358°
2026-05-07 04:57 45.92144 -111.21318 9991 ft 265 kts 334°
2026-05-07 04:57 45.93702 -111.22641 9782 ft 257 kts 323°
2026-05-07 04:57 45.95145 -111.24139 9259 ft 261 kts 322°
2026-05-07 04:57 45.96600 -111.25716 8800 ft 262 kts 321°
2026-05-07 04:58 45.98054 -111.27302 8527 ft 262 kts 321°
2026-05-07 04:58 45.99511 -111.28895 8523 ft 264 kts 321°
2026-05-07 04:58 46.00987 -111.30495 8510 ft 268 kts 321°
2026-05-07 04:58 46.02472 -111.32113 8509 ft 267 kts 321°
2026-05-07 04:59 46.03930 -111.33767 8498 ft 267 kts 314°
2026-05-07 04:59 46.04914 -111.35999 8507 ft 268 kts 288°
2026-05-07 04:59 46.05043 -111.38672 8513 ft 271 kts 261°
2026-05-07 04:59 46.04266 -111.41160 8506 ft 278 kts 234°
2026-05-07 05:00 46.02738 -111.42892 8510 ft 286 kts 208°
2026-05-07 05:00 46.00774 -111.43463 8508 ft 294 kts 180°
2026-05-07 05:00 45.98768 -111.42817 8510 ft 300 kts 159°
2026-05-07 05:00 45.96916 -111.41420 8520 ft 302 kts 152°
2026-05-07 05:01 45.95156 -111.39858 8488 ft 290 kts 144°
2026-05-07 05:01 45.93830 -111.37786 8495 ft 276 kts 126°
2026-05-07 05:01 45.92777 -111.35566 8486 ft 261 kts 133°
2026-05-07 05:01 45.91468 -111.33872 8344 ft 248 kts 144°
2026-05-07 05:02 45.90109 -111.32327 7807 ft 251 kts 141°
2026-05-07 05:02 45.88804 -111.30623 7262 ft 254 kts 138°
2026-05-07 05:02 45.87553 -111.28857 6873 ft 246 kts 137°
2026-05-07 05:02 45.86401 -111.27219 6523 ft 224 kts 139°
2026-05-07 05:03 45.85344 -111.25739 6253 ft 202 kts 138°
2026-05-07 05:03 45.84364 -111.24381 5962 ft 187 kts 137°
2026-05-07 05:03 45.83465 -111.23136 5681 ft 172 kts 137°
2026-05-07 05:03 45.82645 -111.21993 5491 ft 158 kts 138°
2026-05-07 05:04 45.81885 -111.20936 5291 ft 150 kts 137°
2026-05-07 05:04 45.81140 -111.19899 5124 ft 149 kts 136°
2026-05-07 05:04 45.80393 -111.18857 4922 ft 149 kts 136°
2026-05-07 05:04 45.79650 -111.17822 4697 ft 148 kts 135°
2026-05-07 05:05 45.78927 -111.16814 4529 ft 140 kts 134°
2026-05-07 05:05 45.78300 -111.15930 4495 ft 90 kts 136°
2026-05-07 05:05 45.78062 -111.15596 4496 ft 16 kts 135°
2026-05-07 05:05 45.78051 -111.15581 4496 ft 1 kts 135°
2026-05-07 05:06 45.78039 -111.15563 4495 ft 0 kts 135°
2026-05-07 05:07 45.78012 -111.15531 4495 ft 20 kts 150°
2026-05-07 05:07 45.77895 -111.15577 4491 ft 7 kts 222°
2026-05-07 05:07 45.77890 -111.15582 4493 ft 1 kts 222°
2026-05-07 05:07 45.77886 -111.15589 4495 ft 1 kts 227°
2026-05-07 05:08 45.77885 -111.15590 4494 ft 0 kts 227°
2026-05-07 05:10 45.77881 -111.15596 4493 ft 7 kts 227°
2026-05-07 05:11 45.77837 -111.15711 4492 ft 15 kts 250°
2026-05-07 05:11 45.77825 -111.15788 4489 ft 0 kts 275°
2026-05-07 05:11 45.77825 -111.15789 4489 ft 1 kts 275°
2026-05-07 05:11 45.77854 -111.15861 4491 ft 7 kts 310°
2026-05-07 05:12 45.77858 -111.15868 4491 ft 2 kts 310°
2026-05-07 05:12 45.77880 -111.15910 4493 ft 5 kts 288°
2026-05-07 05:12 45.77871 -111.15966 4494 ft 0 kts 237°
2026-05-07 05:12 45.77866 -111.15977 4494 ft 2 kts 237°
2026-05-07 05:13 45.77862 -111.15985 4492 ft 0 kts 234°
2026-05-07 05:13 45.77861 -111.15987 4493 ft 0 kts 233°
2026-05-07 05:14 45.77865 -111.15993 4489 ft 0 kts 224°
2026-05-07 05:14 45.77857 -111.16001 4495 ft 0 kts 226°